Tracking 20093 objects as of 16-Dec-2019
HD Live streaming from Space Station
objects crossing your sky now

CZ-4 R/B

Track CZ-4 R/B now!
10-day predictions
CZ-4 R/B is classified as:


NORAD ID: 29507
Int'l Code: 2006-046C
Perigee: 537.1 km
Apogee: 608.1 km
Inclination: 97.7 °
Period: 96.0 minutes
Semi major axis: 6943 km
RCS: 4.43 m2 (large)
Launch date: October 23, 2006
Source: People's Republic of China (PRC)
Launch site: Taiyaun Space Center, China (TSC)

Note: This is a ROCKET BODY
aabbcc
Your satellite tracking list
Your tracking list is empty




NASA's NSSDC Master Catalog

Two Line Element Set (TLE):
1 29507U 06046C   19349.77559473 -.00000136  00000-0 -55570-5 0  9991
2 29507  97.7489   7.2448 0051093  67.9897 292.6744 15.00461575717720
Source of the keplerian elements: AFSPC